This demonstration page uses our WeatherBlox Daily Observations layout. Learn more.

Left ArrowRight Arrow

31.31129, -92.44514

Hourly Observations for August 28, 2018

Temp ( °F °C ) Dew Point ( °F °C ) Humidity (%) Winds ( mph kmh ) Pressure ( in mb ) Visibility ( mi km ) Precip ( " mm )
12:53 am 00:53 Clear 77 25 72 22.2 85 85 SE 9 15 29.99 1016 10 16 0.00 0.00
1:53 am 01:53 Clear 76 24.4 72 22.2 88 88 S 5 7 30.00 1016 10 16 0.00 0.00
2:53 am 02:53 Clear 75 23.9 72 22.2 90 90 SE 6 9 30.00 1016 10 16 0.00 0.00
3:53 am 03:53 Clear 75 23.9 72 22.2 90 90 SE 5 7 30.00 1016 10 16 0.00 0.00
4:53 am 04:53 Clear 75 23.9 72 22.2 90 90 SE 6 9 30.01 1016 10 16 0.00 0.00
5:53 am 05:53 Clear 75 23.9 73 22.8 94 94 SE 6 9 30.01 1016 10 16 0.00 0.00
6:53 am 06:53 Sunny 76 24.4 73 22.8 91 91 ESE 7 11 30.02 1017 10 16 0.00 0.00
7:53 am 07:53 Sunny 78 25.6 74 23.3 87 87 SE 8 13 30.03 1017 10 16 0.00 0.00
8:53 am 08:53 Sunny 82 27.8 75 23.9 79 79 SE 10 17 30.04 1017 10 16 0.00 0.00
9:53 am 09:53 Mostly Sunny 86 30 75 23.9 70 70 SSE 8 13 30.04 1017 10 16 0.00 0.00
10:53 am 10:53 Partly Cloudy 89 31.7 74 23.3 61 61 VRB 5 7 30.04 1017 10 16 0.00 0.00
11:53 am 11:53 Mostly Cloudy 90 32.2 73 22.8 58 58 S 10 17 30.04 1017 10 16 0.00 0.00
12:53 pm 12:53 Mostly Cloudy 93 33.9 72 22.2 50 50 Calm 30.01 1016 10 16 0.00 0.00
1:23 pm 13:23 Partly Cloudy with Nearby Thunderstorms 93 33.9 72 22.2 50 50 Calm 30.00 1016 10 16 0.00 0.00
1:38 pm 13:38 Mostly Cloudy 93 33.9 72 22.2 50 50 Calm 30.00 1016 10 16 0.00 0.00
1:53 pm 13:53 Mostly Cloudy with Strong Thunderstorms 93 33.9 72 22.2 50 50 Calm 30.01 1016 2 3 0.04 1.02
2:01 pm 14:01 Mostly Cloudy with Strong Thunderstorms 77 25 74 23.3 90 90 SW 16 26 30.03 1017 1 2 0.08 2.03
2:17 pm 14:17 Cloudy with Strong Thunderstorms 75 23.9 73 22.8 94 94 SW 13 20 30.03 1017 1 1 0.42 10.67
2:32 pm 14:32 Cloudy with Thunderstorms 75 23.9 72 22.2 90 90 SE 5 7 30.00 1016 5 8 0.43 10.92
2:53 pm 14:53 Partly Cloudy with Nearby Thunderstorms 75 23.9 72 22.2 90 90 SE 9 15 30.04 1017 9 14 0.45 11.43
3:08 pm 15:08 Mostly Sunny 77 25 74 23.3 90 90 ESE 16 26 30.03 1017 10 16 0.00 0.03
3:22 pm 15:22 Sunny with Nearby Thunderstorms 77 25 73 22.8 88 88 SE 14 22 30.03 1017 10 16 0.00 0.03
3:37 pm 15:37 Sunny 78 25.6 72 22.2 82 82 SE 10 17 30.03 1017 10 16 0.00 0.03
3:51 pm 15:51 Partly Cloudy with Nearby Thunderstorms 77 25 72 22 83 83 SE 8 13 30.03 1017 10 16 0.00 0.03
3:53 pm 15:53 Partly Cloudy with Nearby Thunderstorms 77 25 72 22.2 85 85 SE 8 13 30.04 1017 10 16 0.00 0.03
4:06 pm 16:06 Sunny with Light Rain 77 25 73 22.8 88 88 SE 8 13 30.00 1016 10 16 0.01 0.25
4:53 pm 16:53 Partly Cloudy with Light Rain 76 24.4 74 23.3 94 94 SSE 7 11 30.01 1016 8 13 0.03 0.76
5:53 pm 17:53 Partly Cloudy 76 24.4 74 23.3 94 94 SSE 7 11 29.99 1016 10 16 0.01 0.25
6:53 pm 18:53 Sunny 78 25.6 74 23.3 87 87 SE 9 15 30.01 1016 10 16 0.00 0.00
7:53 pm 19:53 Clear 78 25.6 75 23.9 90 90 SE 10 17 30.01 1016 10 16 0.00 0.03
8:53 pm 20:53 Clear 77 25 74 23.3 90 90 SE 7 11 30.03 1017 10 16 0.00 0.00
9:53 pm 21:53 Clear 76 24.4 74 23.3 94 94 SE 6 9 30.04 1017 10 16 0.00 0.00
10:53 pm 22:53 Clear 76 24.4 74 23.3 94 94 ESE 7 11 30.04 1017 10 16 0.00 0.00
11:53 pm 23:53 Clear 75 23.9 74 23.3 96 96 SE 6 9 30.04 1017 10 16 0.00 0.00

Powered by AerisWeather